GW1542 Weather Reports


time (UTC)temp
C
wind
direction
speed
KPH
gust
KPH
rain 1hr
cm
rain 24hr
cm
rain mn
cm
humidity
%
barometer
mb
20260508023341 3 146 3.2 4.8 0.00 0.00 0.13 76 1014.2
20260508022723 4 210 0.0 0.0 0.00 0.00 0.13 76 1014.2
20260508021515 5 79 1.6 3.2 0.00 0.00 0.13 72 1014.2
20260508020945 5 183 1.6 3.2 0.00 0.00 0.13 68 1014.2
20260508020349 6 13 0.0 1.6 0.00 0.00 0.13 64 1013.8
20260508015738 5 202 1.6 1.6 0.00 0.00 0.13 69 1014.2
20260508015145 5 1 1.6 3.2 0.00 0.00 0.13 67 1013.8
20260508014517 6 195 3.2 3.2 0.00 0.00 0.13 59 1013.8
20260508012725 7 82 3.2 3.2 0.00 0.00 0.13 66 1013.8
20260508011528 6 152 1.6 1.6 0.00 0.00 0.13 66 1013.8
20260508010935 5 241 1.6 1.6 0.00 0.00 0.13 72 1013.5
20260508010349 6 270 1.6 1.6 0.00 0.00 0.13 68 1013.5
20260508005736 6 41 1.6 3.2 0.00 0.00 0.13 68 1013.5
20260508003908 6 216 1.6 1.6 0.00 0.00 0.13 69 1013.2
20260508003340 7 264 4.8 4.8 0.00 0.00 0.13 61 1013.2
20260508002734 7 235 1.6 1.6 0.00 0.00 0.13 61 1012.8
20260508002110 7 201 0.0 0.0 0.00 0.00 0.13 61 1013.2
20260508001532 8 86 3.2 3.2 0.00 0.00 0.13 59 1013.2
20260508000949 9 227 3.2 4.8 0.00 0.00 0.13 52 1012.8
20260508000335 10 205 3.2 3.2 0.00 0.00 0.13 51 1012.8
20260507235747 9 278 3.2 4.8 0.00 0.00 0.13 49 1012.8
20260507235119 10 200 4.8 4.8 0.00 0.00 0.13 51 1012.5
20260507234551 10 207 4.8 9.7 0.00 0.00 0.13 49 1012.5
20260507233938 10 186 1.6 3.2 0.00 0.00 0.13 50 1012.5
20260507233347 10 220 3.2 3.2 0.00 0.00 0.13 49 1012.5
20260507231535 11 187 4.8 9.7 0.00 0.00 0.13 48 1012.5
20260507225744 11 227 6.4 6.4 0.00 0.00 0.13 46 1012.5
20260507225120 11 219 3.2 4.8 0.00 0.00 0.13 46 1012.5
20260507224527 11 210 9.7 14.5 0.00 0.00 0.13 46 1012.1
20260507223918 12 232 0.0 1.6 0.00 0.00 0.13 49 1012.1
20260507223338 12 216 4.8 6.4 0.00 0.00 0.13 43 1012.8
20260507222719 13 228 6.4 11.3 0.00 0.00 0.13 42 1012.1
20260507221516 11 256 1.6 3.2 0.00 0.00 0.13 49 1012.5
20260507220312 12 203 3.2 6.4 0.00 0.00 0.13 46 1012.1
20260507215738 12 233 4.8 6.4 0.00 0.00 0.13 47 1012.1
20260507215144 12 223 9.7 11.3 0.00 0.00 0.13 44 1011.8
20260507213944 11 241 3.2 4.8 0.00 0.00 0.13 47 1012.1
20260507212737 12 157 9.7 11.3 0.00 0.00 0.13 47 1011.8
20260507211532 11 223 6.4 9.7 0.00 0.00 0.13 50 1011.8
20260507210928 11 256 11.3 14.5 0.00 0.00 0.13 47 1011.8
20260507210344 11 174 6.4 9.7 0.00 0.00 0.13 47 1011.5
20260507204547 12 219 11.3 12.9 0.00 0.00 0.13 46 1011.5
20260507202737 12 225 11.3 19.3 0.00 0.00 0.13 47 1011.5
20260507202152 13 203 6.4 12.9 0.00 0.00 0.13 43 1011.8
20260507201538 12 226 12.9 19.3 0.00 0.00 0.13 44 1011.8
20260507200938 13 282 9.7 14.5 0.00 0.00 0.13 45 1011.8
20260507195752 12 206 4.8 6.4 0.00 0.00 0.13 47 1011.8
20260507195151 12 186 3.2 4.8 0.00 0.00 0.13 50 1012.1
20260507194514 13 220 6.4 9.7 0.00 0.00 0.13 48 1012.1
20260507193951 12 272 6.4 12.9 0.00 0.00 0.13 50 1012.1
20260507192732 12 258 11.3 17.7 0.00 0.00 0.13 51 1012.1
20260507192146 12 254 11.3 14.5 0.00 0.00 0.13 50 1012.1
20260507191535 12 211 8.0 11.3 0.00 0.00 0.13 51 1012.1
20260507190936 11 90 6.4 6.4 0.00 0.00 0.13 52 1012.1
20260507185724 11 217 4.8 6.4 0.00 0.00 0.13 56 1012.1
20260507185150 11 244 3.2 3.2 0.00 0.00 0.13 56 1012.1
20260507184549 11 285 3.2 4.8 0.00 0.00 0.13 57 1012.1
20260507183951 11 248 3.2 3.2 0.00 0.00 0.13 55 1012.1
20260507183308 11 245 4.8 6.4 0.00 0.00 0.13 57 1012.1
20260507182714 11 228 11.3 12.9 0.00 0.00 0.13 57 1012.5
20260507182150 11 233 4.8 6.4 0.00 0.00 0.13 57 1012.1
20260507181510 11 261 3.2 6.4 0.00 0.00 0.13 58 1012.1
20260507180927 11 290 11.3 14.5 0.00 0.00 0.13 56 1012.1
20260507180324 12 215 9.7 12.9 0.00 0.00 0.13 57 1012.1
20260507174520 12 260 9.7 14.5 0.00 0.00 0.13 54 1012.1
20260507173945 12 275 8.0 12.9 0.00 0.00 0.13 57 1012.1
20260507172732 11 251 6.4 9.7 0.00 0.00 0.13 57 1012.5
20260507172129 11 206 9.7 12.9 0.00 0.00 0.13 60 1012.8
20260507170911 10 259 3.2 4.8 0.00 0.00 0.13 61 1012.8
20260507170321 11 254 8.0 9.7 0.00 0.00 0.13 62 1012.8
20260507165750 11 357 4.8 6.4 0.00 0.00 0.13 63 1013.2
20260507165135 11 280 4.8 6.4 0.00 0.00 0.13 68 1012.8
20260507163923 10 301 6.4 9.7 0.00 0.00 0.13 65 1013.2
20260507162722 10 280 9.7 11.3 0.00 0.00 0.13 66 1013.2
20260507162152 10 237 3.2 4.8 0.00 0.00 0.13 70 1013.2
20260507161555 11 296 6.4 9.7 0.00 0.00 0.13 68 1013.2
20260507160923 10 241 6.4 9.7 0.00 0.00 0.13 73 1013.2
20260507160346 10 222 1.6 3.2 0.00 0.00 0.13 72 1013.5
20260507155731 10 237 4.8 4.8 0.00 0.00 0.13 70 1013.5
20260507155123 10 182 3.2 4.8 0.00 0.00 0.13 73 1013.2
20260507154519 10 268 6.4 11.3 0.00 0.00 0.13 73 1013.5
20260507153911 9 244 8.0 11.3 0.00 0.00 0.13 76 1013.5
20260507153315 9 259 3.2 4.8 0.00 0.00 0.13 75 1013.5
20260507152750 9 253 4.8 6.4 0.00 0.00 0.13 76 1013.5
20260507151534 8 299 3.2 3.2 0.00 0.00 0.13 81 1013.5
20260507150347 8 239 3.2 3.2 0.00 0.00 0.13 78 1013.8
20260507145715 8 203 1.6 1.6 0.00 0.00 0.13 77 1013.8
20260507145111 8 270 1.6 1.6 0.00 0.00 0.13 80 1013.8
20260507144515 8 259 1.6 3.2 0.00 0.00 0.13 80 1013.8
20260507143939 7 237 1.6 1.6 0.00 0.00 0.13 81 1013.8
20260507143320 7 120 1.6 3.2 0.00 0.00 0.13 78 1013.8
20260507142123 8 262 3.2 3.2 0.00 0.00 0.13 80 1014.5
20260507141517 8 251 3.2 3.2 0.00 0.00 0.13 81 1014.2
20260507140926 7 246 4.8 6.4 0.00 0.00 0.13 83 1014.2
20260507140342 8 208 1.6 1.6 0.00 0.00 0.13 81 1014.2
20260507135143 7 228 0.0 0.0 0.00 0.00 0.13 85 1014.2
20260507134519 7 253 6.4 9.7 0.00 0.00 0.13 88 1014.2
20260507133319 6 229 3.2 4.8 0.00 0.00 0.13 89 1014.5
20260507132742 6 228 1.6 3.2 0.00 0.00 0.13 89 1014.5
20260507132122 6 239 3.2 3.2 0.00 0.00 0.13 89 1014.5
20260507130911 6 213 0.0 0.0 0.00 0.00 0.13 89 1014.9
20260507130311 6 228 3.2 4.8 0.00 0.00 0.13 91 1014.2
20260507124550 6 255 3.2 3.2 0.00 0.00 0.13 93 1014.9
20260507123943 6 216 1.6 3.2 0.00 0.00 0.13 93 1014.9
20260507123343 6 226 0.0 1.6 0.00 0.00 0.13 93 1014.9
20260507122748 6 241 1.6 1.6 0.00 0.00 0.13 94 1014.5
20260507122127 6 249 3.2 3.2 0.00 0.00 0.13 94 1014.9
20260507120340 6 283 3.2 3.2 0.00 0.00 0.13 95 1014.5
20260507115712 6 285 1.6 3.2 0.00 0.00 0.13 96 1014.5
20260507115146 6 234 0.0 0.0 0.00 0.00 0.13 96 1014.5
20260507114527 6 243 0.0 0.0 0.00 0.00 0.13 96 1014.5
20260507113916 6 230 0.0 0.0 0.00 0.00 0.13 95 1014.2
20260507113326 6 233 0.0 0.0 0.00 0.00 0.13 95 1013.8
20260507112752 6 217 3.2 3.2 0.00 0.00 0.13 95 1014.2
20260507111513 6 249 3.2 3.2 0.00 0.00 0.13 96 1013.8
20260507110940 6 234 1.6 1.6 0.00 0.00 0.13 96 1013.8
20260507110320 6 239 0.0 0.0 0.00 0.00 0.13 97 1013.8
20260507105717 6 221 3.2 3.2 0.00 0.00 0.13 97 1013.8
20260507105143 6 235 1.6 1.6 0.00 0.00 0.13 97 1013.8
20260507104546 6 192 1.6 1.6 0.00 0.00 0.10 98 1013.8
20260507103320 6 227 0.0 0.0 0.00 0.00 0.10 98 1013.8
20260507102729 6 231 0.0 0.0 0.00 0.00 0.10 98 1013.8
20260507101525 6 242 1.6 1.6 0.00 0.00 0.10 99 1013.5
20260507100912 6 235 1.6 3.2 0.00 0.00 0.10 99 1013.5
20260507100332 6 233 4.8 4.8 0.00 0.00 0.10 99 1013.5
20260507095740 6 222 1.6 1.6 0.00 0.00 0.10 99 1013.5
20260507095110 6 208 0.0 0.0 0.00 0.00 0.10 99 1013.2
20260507093930 6 214 1.6 3.2 0.00 0.00 0.10 99 1013.2
20260507093344 6 211 0.0 0.0 0.00 0.00 0.10 99 1013.2
20260507092744 6 185 1.6 3.2 0.00 0.00 0.10 99 1013.2
20260507092130 6 198 0.0 1.6 0.00 0.00 0.10 99 1013.2
20260507091510 6 210 0.0 0.0 0.00 0.00 0.10 99 1013.2
20260507090939 6 216 0.0 0.0 0.00 0.00 0.10 99 1013.5
20260507090318 6 198 0.0 1.6 0.00 0.00 0.08 99 1013.5
20260507085715 6 206 0.0 0.0 0.00 0.00 0.08 99 1013.5
20260507085109 6 205 0.0 1.6 0.00 0.00 0.08 99 1013.2
20260507084541 6 220 0.0 0.0 0.00 0.00 0.08 99 1013.2
20260507083925 6 220 0.0 0.0 0.00 0.00 0.08 99 1013.5
20260507083327 6 220 0.0 0.0 0.00 0.00 0.08 99 1013.2
20260507082121 6 220 0.0 0.0 0.00 0.00 0.08 99 1013.5
20260507081530 6 230 0.0 0.0 0.00 0.00 0.08 99 1013.8
20260507080917 6 230 0.0 0.0 0.00 0.00 0.08 99 1013.5
20260507080337 6 230 0.0 0.0 0.00 0.00 0.08 99 1013.2
20260507075716 6 202 1.6 1.6 0.00 0.00 0.08 98 1013.5
20260507075135 6 219 0.0 0.0 0.00 0.00 0.08 99 1013.5
20260507074541 6 231 0.0 0.0 0.00 0.00 0.08 98 1013.5
20260507073952 6 208 1.6 1.6 0.00 0.00 0.08 98 1013.5
20260507073328 6 211 0.0 0.0 0.00 0.00 0.08 98 1013.5
20260507072748 6 211 0.0 0.0 0.00 0.00 0.08 98 1013.5
20260507072116 6 211 0.0 0.0 0.00 0.00 0.08 98 1013.5
20260507071537 6 211 0.0 0.0 0.00 0.00 0.08 98 1013.5
20260507070310 6 211 0.0 0.0 0.00 0.00 0.08 98 1013.5
20260507065753 6 211 0.0 0.0 0.00 0.00 0.08 98 1013.5
20260507064514 6 211 0.0 0.0 0.00 0.00 0.08 97 1013.5
20260507063913 6 212 0.0 0.0 0.00 0.00 0.08 97 1013.5
20260507063347 6 211 0.0 0.0 0.00 0.00 0.08 97 1013.5
20260507062716 6 209 0.0 0.0 0.00 0.00 0.08 97 1013.5
20260507062130 6 209 0.0 0.0 0.00 0.00 0.08 96 1013.8
20260507061517 6 207 0.0 0.0 0.00 0.00 0.08 96 1013.8
20260507060928 6 226 0.0 0.0 0.00 0.00 0.05 96 1013.8
20260507060317 6 226 0.0 0.0 0.00 0.00 0.05 95 1013.8
20260507055734 6 225 0.0 0.0 0.00 0.00 0.05 95 1014.2
20260507055110 6 286 0.0 1.6 0.00 0.00 0.05 96 1014.5
20260507053926 7 235 0.0 0.0 0.00 0.00 0.05 96 1014.5
20260507052712 7 181 0.0 0.0 0.00 0.00 0.05 95 1014.2
20260507052147 7 152 3.2 3.2 0.00 0.00 0.05 95 1014.5
20260507051524 7 196 0.0 0.0 0.00 0.00 0.05 95 1014.5
20260507050911 7 188 1.6 1.6 0.00 0.00 0.05 96 1013.8
20260507050342 7 306 1.6 1.6 0.00 0.00 0.03 95 1014.2
20260507045750 7 230 0.0 0.0 0.00 0.00 0.03 95 1014.2
20260507045142 7 185 0.0 1.6 0.00 0.00 0.03 95 1014.2
20260507044539 7 287 3.2 4.8 0.00 0.00 0.03 96 1014.2
20260507043954 8 134 1.6 3.2 0.00 0.00 0.03 96 1014.2
20260507041541 8 43 0.0 0.0 0.00 0.00 0.03 97 1013.8
20260507040932 8 125 1.6 3.2 0.00 0.00 0.00 97 1013.8
20260507040332 8 327 0.0 0.0 0.00 0.00 0.00 97 1013.8
20260507035713 8 181 1.6 1.6 0.00 0.00 2.08 97 1013.5
20260507035145 8 227 1.6 1.6 0.00 0.00 2.08 97 1014.2
20260507034518 8 270 1.6 3.2 0.00 0.00 2.08 97 1013.8
20260507033911 8 280 4.8 4.8 0.00 0.00 2.08 97 1013.5
20260507033343 8 223 3.2 3.2 0.00 0.00 2.08 97 1013.2
20260507032121 9 214 1.6 3.2 0.00 0.00 2.06 97 1014.5
20260507030950 9 271 1.6 1.6 0.00 0.00 2.06 97 1013.8
20260507030351 9 230 0.0 1.6 0.00 0.00 2.06 96 1013.8
20260507025726 9 221 3.2 3.2 0.00 0.00 2.06 96 1013.5
20260507024540 10 230 0.0 1.6 0.00 0.00 2.06 96 1013.8
20260507023911 9 229 0.0 0.0 0.00 0.00 2.06 97 1013.5